Flag for Qatar Weather past 2 weeks in Al-Jamiliyah, Qatar

Now
103 °F

Sunny.


Feels Like: 115 °F
Forecast: 83 / 104 °F
Wind: 12 mph from Northeast

Location: Al Udeid

Current Time: Jul 25, 2014 at 5:11:47 PM

Latest Report: Jul 25, 2014 at 4:58 PM


Visibility: N/A

Pressure: 29.42 "Hg

Humidity: 39%

Dew point: 73 °F

Location of Al-JamiliyahLocation

Historic Weather in Al-Jamiliyah — Graph

°F

Al-Jamiliyah temperature yesterday

Maximum temperature yesterday: 109 °F (at 12:58 PM)
Minimum temperature yesterday: 85 °F (at 4:58 AM)
Average temperature yesterday: 98 °F

Past Weeks' High & Low Weather Summary

 TemperatureHumidityPressure
High114 °F (Jul 14, 12:58 PM)92% (Jul 19, 5:58 AM)29.60 "Hg (Jul 19, 5:58 AM)
Low83 °F (Jul 16, 4:58 AM)6% (Jul 10, 5:58 PM)29.34 "Hg (Jul 17, 11:58 PM)
Average99 °F31%29.46 "Hg
* Reported Jul 10 2:58 PM — Jul 25 2:58 PM, Al-Jamiliyah, Weather by CustomWeather, © 2014

Note: Actual official high and low records may vary slightly from our data, if they occured in-between our weather recording intervals... More about our weather records

Advertising

Al-Jamiliyah weather history for previous 24 hours

 ConditionsComfort  
Time TempWeatherWind HumidityBarometerVisibility
2:58 PM
Jul 25
111 °FSunny.25 mph17%29.40 "HgN/A
1:58 PM112 °FSunny.23 mph16%29.41 "HgN/A
12:58 PM112 °FSunny.28 mph16%29.42 "HgN/A
11:58 AM111 °FScattered clouds.24 mph16%29.43 "HgN/A
10:58 AM110 °FSunny.21 mph17%29.45 "HgN/A
9:58 AM106 °FSunny.17 mph21%29.47 "HgN/A
8:58 AM101 °FSunny.16 mph27%29.47 "HgN/A
7:58 AM98 °FSunny.14 mph29%29.47 "HgN/A
6:58 AM91 °FSunny.7 mph40%29.47 "HgN/A
5:58 AM85 °FSunny.7 mph53%29.46 "HgN/A
4:58 AM84 °FClear.6 mph55%29.44 "HgN/A
3:58 AM84 °FClear.5 mph50%29.43 "HgN/A
2:58 AM85 °FClear.5 mph42%29.43 "HgN/A
1:58 AM85 °FClear.8 mph39%29.42 "HgN/A
12:58 AM87 °FClear.8 mph34%29.42 "HgN/A
11:58 PM
Jul 24
88 °FClear.7 mph31%29.44 "HgN/A
10:58 PM90 °FClear.8 mph27%29.45 "HgN/A
9:58 PM92 °FClear.8 mph27%29.46 "HgN/A
8:58 PM96 °FClear.5 mph26%29.45 "HgN/A
7:58 PM100 °FSunny.9 mph23%29.44 "HgN/A
6:58 PM102 °FSunny.10 mph19%29.43 "HgN/A
5:58 PM105 °FSunny.16 mph15%29.41 "HgN/A
Weather by CustomWeather, © 2014

See weather overviewHow to use our weather pages